2018-111Q (43890 NORAD) Tracking and Keplerian Element Data

This shows tracking and keplerian element data for the satellite.

Feedback or suggestion? Click here.




ElementValue
Catalog43890
Name2018-111Q
Epoch Orbit444
Epoch Day25.96426212
Epoch Year2019
RAAN296.025
Inclination97.726
Eccentricity0.0010437
Argument of Perigee152.2873
Mean Anonmoly207.8907
Mean Motion14.96586864
Decay Rate5.72E-06
L11 43890U 18111Q 19025.96426212 .00000572 00000-0 55288-4 0 9991
L22 43890 97.7260 296.0250 0010437 152.2873 207.8907 14.96586864 4446

Live tracking and technical data element details for 2018-111Q (NORAD 43890). 2018-111Q can be tracked NOW for your location showing map with azimuth and elevation plus other details from your city location.

Track the satellite on the map from your city or location and see movement details for azimuth, elevation, latitude, longitude, range, height, and movement on the map or in text.







IsCatalogInMostPopularTable: catalog: 43890, numindb: 57
Update: records affected: 1



GetName: 43890 2018-111Q

Hit Count: updated at: Thu, 23 May 2019 14:41:41 GMT